Theta_e
301 300 300 299 300 301 302 299 287 304 312 295 296 291 293 296 295 298 296 297 295 293 293 291 291 290 294 299 298 292 295 291 285 289 296 295 293 290 291 284 282 284 283 283
300 300 299 298 299 299 298 294 294 303 308 288 289 294 293 295 294 294 294 292 295 295 291 287 291 292 296 298 296 293 294 288 282 285 289 290 287 290 289 288 285 282 280 283
300 299 298 298 299 299 298 291 285 293 299 297 291 289 289 289 293 293 294 293 295 292 289 291 288 290 293 294 294 294 295 288 284 280 285 289 285 287 288 286 281 282 282 283
300 299 298 297 298 298 296 289 285 289 287 289 290 290 289 286 286 291 292 289 290 287 284 285 285 288 289 291 290 291 290 283 285 286 287 287 285 284 283 282 282 278 281 281
300 299 299 298 298 297 291 285 285 287 285 286 286 287 286 285 287 287 285 285 287 286 283 285 283 284 285 285 286 285 286 280 283 278 283 283 280 282 282 281 281 280 280 280
300 300 299 299 299 296 289 288 290 287 283 282 283 283 285 283 285 283 284 283 282 281 284 286 286 286 285 284 282 281 280 280 278 275 280 278 273 277 280 281 282 281 277 280
299 300 299 299 299 298 293 290 289 283 279 281 281 282 283 282 282 281 283 283 281 284 288 285 284 282 282 282 282 283 279 278 278 273 273 267 279 282 281 279 280 279 278 278
301 300 300 300 299 299 295 292 289 283 278 281 280 281 281 282 282 281 281 283 285 286 283 277 273 272 272 275 279 280 281 278 274 269 270 274 275 278 277 276 277 280 278 278
301 301 301 301 301 300 296 294 294 288 280 279 282 280 281 279 278 278 279 283 284 284 280 275 269 268 267 270 272 276 277 279 274 264 266 264 274 277 279 278 271 279 278 278
300 300 300 300 301 301 296 294 295 289 282 284 283 279 279 282 280 278 278 279 279 282 277 271 269 269 272 269 267 270 271 271 270 271 268 272 278 278 279 269 272 280 280 279
300 301 300 299 300 300 298 293 295 289 284 285 285 286 282 282 281 278 277 278 276 277 274 272 271 269 271 270 272 272 271 270 268 266 265 265 278 276 273 278 281 281 280 280
300 300 301 300 299 300 299 291 295 295 286 286 289 289 290 288 287 284 279 281 275 280 276 274 274 269 268 271 267 275 269 274 271 270 272 279 279 279 282 283 281 281 281 282
300 300 300 300 300 299 298 294 294 291 285 284 284 285 288 290 289 291 281 280 283 281 284 279 276 271 273 270 269 273 276 278 273 274 277 278 280 282 282 283 282 283 283 281
300 300 300 299 299 300 299 292 293 291 285 281 282 286 286 291 290 289 288 287 285 285 283 279 276 273 277 274 275 274 277 276 274 274 277 278 280 281 282 282 283 280 277 277
299 299 299 299 299 299 298 294 294 294 286 280 281 283 285 288 289 287 287 286 284 282 279 278 276 279 277 278 277 275 278 276 274 272 278 278 279 282 282 279 279 275 273 273
298 298 298 299 298 298 291 284 291 294 292 282 277 285 281 284 286 286 285 285 284 283 280 279 280 282 278 274 272 278 280 281 281 278 281 281 282 281 277 275 273 271 270 269
297 297 298 298 298 295 285 285 289 294 292 282 277 277 279 279 282 283 283 284 283 282 280 279 279 279 279 276 272 278 279 280 280 281 280 278 278 276 272 271 269 268 266 267
296 296 297 297 297 296 290 290 294 293 286 284 276 275 274 276 276 277 281 280 281 281 279 279 277 279 278 272 277 279 279 279 279 279 272 272 271 270 267 266 265 264 264 264
296 296 296 294 291 285 286 294 294 291 286 278 277 273 271 274 275 277 277 279 275 280 276 277 277 275 271 275 276 277 278 276 274 268 267 267 267 266 264 263 262 262 262 262
295 292 285 282 285 294 293 288 284 282 282 281 275 274 273 276 275 274 275 276 274 270 273 276 273 272 277 276 274 268 266 266 267 265 264 263 264 263 262 261 261 261 261 260
287 284 283 286 293 285 282 277 277 277 275 278 275 275 271 275 272 272 276 273 274 268 271 271 269 267 274 267 263 264 263 263 261 262 261 261 260 260 260 260 259 259 258 257
287 286 286 286 281 278 274 273 275 273 271 269 271 272 277 275 278 274 274 270 271 267 265 267 264 270 265 263 261 260 260 259 258 258 258 258 258 258 257 257 256 255 256 255
285 282 278 278 277 271 269 267 266 267 265 267 269 270 274 275 276 274 272 269 267 265 265 264 267 266 259 258 257 256 256 255 255 255 255 255 255 255 255 254 254 253 252 251
278 275 271 271 270 271 268 269 268 271 270 267 269 268 271 273 272 273 268 268 265 263 260 263 269 261 256 256 255 254 253 252 253 253 253 253 253 253 253 252 252 250 250 251
276 275 268 270 265 262 259 257 267 266 271 271 268 268 271 268 270 270 266 262 262 263 263 267 260 255 254 253 253 252 251 252 251 251 250 250 251 250 250 250 249 249 248 248
276 270 267 260 265 263 259 261 263 261 270 270 270 267 266 266 267 265 263 264 261 266 264 257 253 251 251 251 251 251 250 249 249 249 248 249 247 248 250 248 248 249 250 250
267 264 261 260 261 263 260 262 264 267 270 268 266 263 264 267 265 263 263 262 268 259 253 252 253 253 252 250 248 248 247 247 247 247 247 247 248 244 246 250 254 253 255 255
Wind_Speed
8 7 5 5 6 7 3 3 3 1 6 6 3 9 5 3 3 2 3 4 9 13 9 10 10 14 12 1 6 11 7 3 7 19 16 10 11 17 20 15 13 13 18 19
5 6 4 4 6 5 3 4 2 2 2 7 9 5 6 7 7 7 4 6 5 2 8 7 11 12 1 4 4 4 3 3 9 8 7 1 6 6 9 8 2 14 15 3
7 6 5 4 4 3 3 3 4 1 3 0 6 9 9 9 1 5 9 8 6 7 10 10 11 8 3 5 4 7 2 4 8 13 16 15 9 11 8 9 7 10 12 18
9 7 6 4 3 3 2 1 3 2 6 8 7 4 3 4 5 2 3 3 5 0 5 4 8 9 5 3 4 2 1 8 10 13 12 11 14 15 17 17 15 10 14 18
8 9 6 6 5 7 3 3 3 2 2 2 4 7 11 18 14 11 7 11 11 5 10 12 12 8 9 13 2 3 2 9 10 14 16 14 16 18 19 19 20 22 24 26
10 9 9 8 9 5 2 1 1 0 5 5 6 5 6 4 6 2 2 3 0 3 4 1 2 5 6 6 4 2 3 4 7 17 15 9 12 20 18 19 23 23 23 13
13 12 11 10 10 8 3 2 2 3 3 7 6 5 5 7 5 3 5 1 2 1 3 3 6 8 13 16 18 15 14 13 6 12 7 21 14 11 14 18 17 1 4 4
15 17 17 16 15 15 3 3 3 3 3 6 7 8 5 4 3 5 8 8 6 3 1 1 5 2 3 7 17 17 17 14 9 9 16 18 20 17 9 8 13 7 8 4
13 14 12 14 16 17 4 3 3 3 3 8 6 8 10 6 5 3 4 1 2 3 3 2 4 4 0 4 6 3 7 13 11 3 8 10 7 2 2 2 9 8 3 2
19 18 15 15 14 17 6 3 9 3 5 6 10 7 7 7 5 2 1 4 3 3 5 4 6 6 4 5 4 3 2 3 13 13 12 9 5 4 5 6 4 6 6 11
22 22 22 22 21 18 11 3 9 8 5 6 10 13 6 5 6 6 5 4 2 3 7 5 5 6 6 4 5 4 6 6 5 1 4 11 5 7 7 1 9 10 12 15
21 20 22 22 19 20 17 4 8 10 5 3 5 12 16 16 12 8 6 6 6 7 5 6 3 4 3 6 9 6 9 10 6 10 7 3 6 7 11 15 15 17 14 14
24 22 22 23 23 22 17 6 6 5 2 3 5 8 12 13 15 13 8 4 8 5 4 4 4 8 5 7 10 13 16 15 13 13 19 19 19 19 19 19 16 14 11 10
23 23 24 22 20 24 20 6 6 4 1 5 8 2 7 8 15 17 15 15 3 4 4 5 6 6 9 8 11 13 12 5 10 15 20 18 21 18 21 20 14 4 1 1
22 23 21 22 21 21 14 6 7 9 6 2 3 4 6 9 14 18 16 14 10 5 5 6 9 8 8 9 10 15 13 18 13 16 21 16 22 17 12 10 7 2 1 2
20 20 21 22 22 21 4 4 6 10 8 3 5 2 4 6 13 15 16 15 11 8 5 5 6 10 7 7 12 20 15 15 17 20 22 18 21 10 2 6 5 3 1 1
21 21 21 21 22 12 5 4 4 19 9 3 4 5 0 2 4 4 6 9 6 6 5 6 7 8 8 5 10 20 14 15 18 19 15 16 10 6 6 4 3 3 1 2
20 20 21 22 23 20 11 5 12 15 5 4 4 3 1 2 4 5 4 5 5 5 4 3 7 4 5 9 16 16 16 18 17 12 2 2 7 7 5 3 1 2 3 3
18 18 19 11 9 5 3 22 25 6 5 5 5 6 5 4 2 1 2 4 5 3 6 8 6 7 9 12 14 16 18 8 3 5 4 4 3 4 4 1 0 3 3 5
16 7 4 5 5 15 15 11 8 8 6 5 5 2 5 5 6 6 5 4 4 5 7 4 7 13 16 8 5 4 4 4 4 4 3 3 4 4 3 3 3 4 5 7
4 5 4 1 12 3 5 5 5 3 6 6 4 9 6 5 5 6 5 3 4 5 4 6 4 6 10 6 6 5 6 5 5 5 5 4 3 1 4 5 4 5 7 8
4 3 4 3 3 4 6 8 6 6 7 4 7 6 6 4 3 4 5 5 4 6 3 3 4 5 4 7 6 6 5 5 4 3 3 2 1 2 4 5 6 7 7 8
2 4 5 4 5 8 9 11 3 4 5 7 6 5 5 4 4 4 5 6 6 4 4 5 6 2 4 5 6 6 4 4 3 2 3 3 4 4 4 6 6 6 6 7
6 5 9 8 5 7 6 6 7 5 5 9 6 4 4 3 6 3 5 2 4 4 4 7 4 3 6 5 4 4 3 2 1 3 3 5 5 6 6 7 6 5 7 8
5 5 6 5 1 0 1 1 2 1 5 10 4 3 3 3 4 4 5 4 6 6 6 4 2 5 6 6 4 3 1 1 2 2 4 6 6 5 7 6 5 6 7 7
4 2 4 2 2 1 1 2 3 2 6 3 4 5 4 5 4 6 8 6 8 6 4 3 6 6 5 4 4 3 2 2 3 4 3 5 5 5 7 7 7 6 5 6
2 2 2 1 2 2 3 2 3 2 2 4 4 6 8 4 4 5 5 7 4 2 3 3 3 5 5 4 4 2 1 2 3 3 3 4 4 4 3 5 6 6 6 6
Wind_Direction
131 117 109 92 39 13 68 158 179 162 181 174 189 225 210 222 235 64 299 303 258 258 276 273 264 257 252 121 296 273 240 248 246 262 263 247 254 263 251 241 248 245 253 254
174 165 141 95 57 48 142 151 80 352 247 197 212 220 229 241 222 228 223 251 238 230 263 270 254 261 322 329 291 290 23 244 275 253 240 151 246 261 275 282 308 249 259 233
179 133 114 70 28 105 107 137 140 249 227 306 221 236 252 237 42 249 229 242 242 253 256 251 271 283 2 359 357 10 330 221 253 276 286 310 284 268 260 247 257 276 253 273
216 179 190 187 163 118 94 69 179 338 184 221 208 250 221 201 206 250 246 223 193 88 269 294 254 280 285 228 360 254 288 268 278 275 281 279 273 275 264 260 268 257 287 289
225 182 208 210 173 120 89 154 161 136 121 64 180 206 239 245 246 247 237 259 281 280 251 251 286 299 269 272 290 286 182 262 289 282 278 258 262 260 264 275 271 263 260 265
231 207 200 222 182 118 110 137 55 165 135 165 186 206 214 161 164 91 121 108 291 235 256 186 181 242 253 261 261 278 275 270 269 268 276 289 257 244 259 266 269 270 275 297
216 211 213 212 195 165 127 164 109 143 195 203 204 191 192 172 176 231 175 157 217 157 93 314 269 258 259 252 252 236 247 243 256 273 301 257 277 317 276 272 282 58 113 130
232 213 207 207 208 180 146 156 148 159 214 212 202 201 192 186 218 244 251 246 246 117 107 226 311 291 304 258 239 244 232 254 256 250 249 290 302 280 250 243 279 182 161 178
235 222 219 229 223 200 156 179 145 139 145 224 197 201 214 217 212 227 219 184 97 165 178 156 221 247 355 283 307 47 225 236 238 161 250 264 312 121 104 126 274 174 188 257
233 237 240 231 225 230 180 189 176 142 206 208 171 191 192 165 169 188 176 174 158 220 200 196 205 237 211 243 229 244 178 203 229 237 249 265 267 146 146 235 302 173 222 265
236 232 225 226 231 227 217 159 192 187 211 213 206 201 162 153 179 180 160 146 171 174 203 202 201 219 204 218 247 232 252 249 204 157 249 265 160 127 224 281 295 295 280 287
240 240 234 230 232 229 210 215 183 191 213 260 225 225 223 213 195 201 198 201 161 177 184 208 193 206 189 218 256 202 250 225 254 216 245 251 185 249 248 284 284 282 285 288
242 241 232 229 223 227 222 211 152 197 236 230 205 214 223 226 212 208 217 226 201 201 186 167 212 236 177 228 235 257 256 256 242 262 253 257 263 262 268 277 276 280 286 290
250 238 235 239 234 226 221 199 168 189 172 246 249 34 217 203 209 217 218 230 182 223 187 201 211 226 197 227 242 236 243 242 239 252 261 272 263 264 268 273 277 271 73 33
241 241 237 233 235 233 214 196 191 191 194 295 301 309 227 201 204 215 214 215 213 197 192 207 222 233 225 241 251 249 241 242 244 255 266 261 272 274 286 262 248 179 264 254
238 237 237 230 233 229 169 208 197 189 180 227 234 285 242 205 204 209 207 211 216 216 208 218 230 230 213 233 241 249 245 247 245 254 265 262 263 296 208 197 180 167 184 329
237 236 236 235 228 213 195 195 192 178 153 208 234 234 348 309 178 197 206 193 199 210 222 218 238 228 212 238 247 259 265 251 255 260 274 266 241 232 152 148 130 106 351 300
238 236 239 239 235 229 218 173 155 145 156 193 215 212 275 211 171 195 184 184 196 204 215 228 235 230 220 243 248 257 254 259 266 263 158 340 111 130 127 101 71 310 310 317
240 240 241 245 225 208 179 171 174 181 160 200 192 185 226 148 136 111 180 198 207 165 219 226 197 218 220 229 240 243 252 251 222 122 115 118 160 144 141 121 269 287 305 315
235 225 198 221 193 139 145 181 199 195 187 190 183 112 177 177 170 185 171 199 217 206 217 146 224 240 246 221 240 90 121 118 140 148 209 187 205 198 227 251 267 279 305 306
192 190 207 38 166 110 174 196 197 150 193 170 139 188 165 204 159 188 225 199 196 219 189 207 215 250 235 151 132 112 111 110 84 77 84 77 89 230 278 281 297 309 305 295
176 129 112 172 179 212 190 174 152 187 202 165 160 181 185 159 154 168 175 202 197 233 123 201 244 240 115 134 133 102 84 81 84 55 98 84 294 298 289 293 292 287 283 284
107 185 171 212 174 200 194 168 179 176 171 175 168 162 146 150 193 179 178 222 211 110 186 222 232 115 115 128 125 112 85 80 73 29 355 335 299 301 288 288 274 273 276 273
187 190 200 199 196 212 178 176 161 196 160 155 142 127 159 163 173 169 201 139 155 196 214 226 225 160 142 128 103 134 151 99 18 322 309 296 298 296 290 274 279 282 276 281
202 180 216 203 104 328 9 300 130 128 141 137 109 80 125 151 172 186 114 166 227 220 217 221 137 142 145 147 144 144 172 318 301 296 299 295 294 292 293 286 278 268 266 268
237 109 134 75 138 262 211 187 140 201 140 103 84 125 145 194 183 168 208 192 213 218 201 141 139 152 151 151 164 167 204 240 267 279 271 292 290 279 286 300 279 270 254 265
96 93 18 40 10 126 144 171 144 164 189 148 130 156 194 109 176 204 187 210 240 151 165 152 131 156 162 166 158 169 218 270 268 272 271 264 283 290 283 304 315 300 281 257